Tracking 25701 objects as of 4-Jul-2022
HD Live streaming from Space Station
objects crossing your sky now

STARLINK-3736

Track STARLINK-3736 now!
10-day predictions
STARLINK-3736 is classified as:


NORAD ID: 52113
Int'l Code: 2022-029AB
Perigee: 545.6 km
Apogee: 548.0 km
Inclination: 53.2 °
Period: 95.4 minutes
Semi major axis: 6917 km
RCS: Unknown
Launch date: March 19, 2022
Source: United States (US)
Launch site: AIR FORCE EASTERN TEST RANGE (AFETR)
aabbcc
Your satellite tracking list
Your tracking list is empty




NASA's NSSDC Master Catalog

Two Line Element Set (TLE):
1 52113U 22029AB  22184.58334491 -.00051109  00000-0 -32136-2 0  9996
2 52113  53.2157 357.5218 0001679  54.7996 196.9060 15.08868130  1306
Source of the keplerian elements: AFSPC